Location: ????????
(60.4333°N, 46.4710°E)
Time: 03:49:53
(UTC+00:00)

Cosmos 1666 Rocket - Pass Details

Date: 25 November 2020
Orbit: 604 x 632 km, 82.5° (Epoch: 19 January)

Event Time Altitude Azimuth Distance (km) Brightness Sun altitude
Rises 14:14:15 0° 346° (NNW) 2,896 7.0 -14.8°
Reaches altitude 10° 14:16:30 10° 349° (NNW) 1,991 6.1 -15.1°
Maximum altitude 14:20:54 70° 73° (ENE) 664 3.4 -15.6°
Drops below altitude 10° 14:25:18 10° 158° (SSE) 1,994 6.1 -16.2°
Sets 14:27:33 0° 161° (SSE) 2,901 6.9 -16.4°
